Regional Weather Roundup
Issued by NWS State College, PA

Home | Current Version | Previous Version | Text Only | Print | Product List | Glossary On
Versions: 1 2 3 4 5 6 7 8 9 10 11 12 13 14 15 16 17 18 19 20 21 22 23 24 25 26 27 28 29 30 31 32 33 34 35 36 37 38 39 40 41 42 43 44 45 46 47 48 49 50
000
ASUS41 KCTP 202210
RWRCTP

REGIONAL WEATHER ROUNDUP
NATIONAL WEATHER SERVICE STATE COLLEGE PA
600 PM EDT MON OCT 20 2014

Note: "fair" indicates few or no clouds below 12,000 feet with no
significant weather and/or obstructions to visibility.

* = STATION THAT DOES NOT REPORT PRECIPITATION /E.G. RAIN...SNOW...ETC/
    THUNDER OR FOG.

PAZ002>004-007>009-013>016-020>023-029>032-202300-
WESTERN PENNSYLVANIA

CITY           SKY/WX    TMP DP  RH WIND       PRES   REMARKS
ERIE           CLOUDY    55  44  66 S14       29.82R
MEADVILLE      CLOUDY    52  42  69 S8        29.84S
FRANKLIN*      CLOUDY    52  39  62 S10       29.87S
NEW CASTLE       N/A     56  42  59 VRB6      29.86F
BEAVER COUNTY  RAIN      55  43  62 SW9       29.88R
BUTLER*        CLOUDY    54  39  58 S7        29.90S
PITTSBURGH INT CLOUDY    56  41  57 S8        29.89R
PITTSBURGH     CLOUDY    56  38  50 S8        29.88S
INDIANA*       CLOUDY    55  39  54 SW8G15    29.93F
LATROBE        CLOUDY   N/A N/A N/A S5        29.94R
WASHINGTON CO* CLOUDY    55  41  58 SW6       29.91S
$$

PAZ004>006-010>012-017>019-024>028-033>037-041-042-045-046-049>053-202300-
CENTRAL PENNSYLVANIA

CITY           SKY/WX    TMP DP  RH WIND       PRES   REMARKS
BRADFORD       CLOUDY    51  38  60 S8        29.86S
DUBOIS         CLOUDY    53  40  61 SW6       29.87F
CLEARFIELD     LGT RAIN  54  40  59 S8        29.89F
JOHNSTOWN      CLOUDY    51  34  52 S9        29.90F
ALTOONA        CLOUDY    50  42  74 SW8       29.92S
STATE COLLEGE  MOCLDY    54  37  54 SW6       29.90S
WILLIAMSPORT   CLOUDY    58  36  43 VRB6      29.90S
SELINSGROVE    CLOUDY    59  38  45 S7        29.92S
FT INDIANTOWN  CLOUDY    59  46  63 S8        29.94S
CAPITAL CITY   CLOUDY    60  41  49 SW7       29.94F
HARRISBURG     CLOUDY    60  41  49 SW3       29.94R
YORK           MOCLDY    59  42  53 CALM      29.94F
$$

PAZ038>040-043-044-047-048-054-055-060>062-067>071-202300-
EASTERN PENNSYLVANIA

CITY           SKY/WX    TMP DP  RH WIND       PRES   REMARKS
SCRANTON       CLOUDY    56  37  49 VRB6      29.92F
MOUNT POCONO   MOCLDY    50  37  61 SW8       29.94S
ALLENTOWN      MOCLDY    59  39  47 S10G16    29.96S
QUAKERTOWN*    PTCLDY    55  39  54 S5        29.97S
READING        CLOUDY    58  42  55 S5        29.95S
LANCASTER      CLOUDY    56  44  64 SE5       29.95F
COATESVILLE    CLOUDY    57  43  58 S3        29.97S
POTTSTOWN      MOCLDY    57  39  51 CALM      29.97F
BLUE BELL      PTCLDY    59  41  51 CALM      29.96F
DOYLESTOWN     PTCLDY    54  39  57 CALM      29.96F
WILLOW GROVE   NOT AVBL
NORTH PHILA    PTCLDY    60  38  43 S3        29.98F
PHILADELPHIA   MOCLDY    60  43  53 SE6       29.97F
$$



USA.gov is the U.S. government's official web portal to all federal, state and local government web resources and services.